Year,Month,Day,Hour,Minute,Value (Times are PST for temperature in C)
2015,05,28,08,16,15.60
2015,05,28,08,17,15.60
2015,05,28,08,18,15.60
2015,05,28,08,19,15.70
2015,05,28,08,20,15.70
2015,05,28,08,21,15.80
2015,05,28,08,22,15.80
2015,05,28,08,23,15.80
2015,05,28,08,24,15.90
2015,05,28,08,25,16.00
2015,05,28,08,26,16.10
2015,05,28,08,27,16.10
2015,05,28,08,28,16.10
2015,05,28,08,29,16.20
2015,05,28,08,30,16.20
2015,05,28,08,31,16.20
2015,05,28,08,32,16.20
2015,05,28,08,33,16.30
2015,05,28,08,34,16.30
2015,05,28,08,35,16.40
2015,05,28,08,36,16.50
2015,05,28,08,37,16.60
2015,05,28,08,38,16.70
2015,05,28,08,39,16.80
2015,05,28,08,40,16.90
2015,05,28,08,41,17.00
2015,05,28,08,42,17.10
2015,05,28,08,43,17.20
2015,05,28,08,44,17.20
2015,05,28,08,45,17.20
2015,05,28,08,46,17.20
2015,05,28,08,47,17.10
2015,05,28,08,48,17.10
2015,05,28,08,49,17.10
2015,05,28,08,50,17.20
2015,05,28,08,51,17.20
2015,05,28,08,52,17.40
2015,05,28,08,53,17.40
2015,05,28,08,54,17.50
2015,05,28,08,55,17.60
2015,05,28,08,56,17.70
2015,05,28,08,57,17.80
2015,05,28,08,58,17.80
2015,05,28,08,59,17.70
2015,05,28,09,00,17.70
2015,05,28,09,01,17.70
2015,05,28,09,02,17.70
2015,05,28,09,03,17.80
2015,05,28,09,04,17.90
2015,05,28,09,05,18.10
2015,05,28,09,06,18.20
2015,05,28,09,07,18.00
2015,05,28,09,08,17.80
2015,05,28,09,09,17.60
2015,05,28,09,10,17.40
2015,05,28,09,11,17.30
2015,05,28,09,12,17.20
2015,05,28,09,13,17.20
2015,05,28,09,14,17.30
2015,05,28,09,15,17.30
2015,05,28,09,16,17.30
2015,05,28,09,17,17.20
2015,05,28,09,18,17.10
2015,05,28,09,19,17.10
2015,05,28,09,20,16.90
2015,05,28,09,21,16.80
2015,05,28,09,22,16.70
2015,05,28,09,23,16.70
2015,05,28,09,24,16.70
2015,05,28,09,25,16.70
2015,05,28,09,26,16.60
2015,05,28,09,27,16.60
2015,05,28,09,28,16.70
2015,05,28,09,29,16.70
2015,05,28,09,30,16.70
2015,05,28,09,31,16.70
2015,05,28,09,32,16.80
2015,05,28,09,33,16.90
2015,05,28,09,34,16.90
2015,05,28,09,35,17.00
2015,05,28,09,36,17.10
2015,05,28,09,37,17.10
2015,05,28,09,38,17.20
2015,05,28,09,39,17.20
2015,05,28,09,40,17.20
2015,05,28,09,41,17.20
2015,05,28,09,42,17.20
2015,05,28,09,43,17.20
2015,05,28,09,44,17.20
2015,05,28,09,45,17.20
2015,05,28,09,46,17.20
2015,05,28,09,47,17.10
2015,05,28,09,48,17.00
2015,05,28,09,49,16.90
2015,05,28,09,50,16.90
2015,05,28,09,51,16.80
2015,05,28,09,52,16.80
2015,05,28,09,53,16.80
2015,05,28,09,54,16.80
2015,05,28,09,55,16.80
2015,05,28,09,56,16.70
2015,05,28,09,57,16.70
2015,05,28,09,58,16.70
2015,05,28,09,59,16.60
2015,05,28,10,00,16.60
2015,05,28,10,01,16.50
2015,05,28,10,02,16.50
2015,05,28,10,03,16.70
2015,05,28,10,04,16.80
2015,05,28,10,05,16.90
2015,05,28,10,06,17.00
2015,05,28,10,07,17.10
2015,05,28,10,08,17.20
2015,05,28,10,09,17.10
2015,05,28,10,10,17.10
2015,05,28,10,11,17.10
2015,05,28,10,12,17.00
2015,05,28,10,13,16.90
2015,05,28,10,14,16.90
2015,05,28,10,15,16.80
2015,05,28,10,16,16.80
2015,05,28,10,17,16.60
2015,05,28,10,18,16.60
2015,05,28,10,19,16.60
2015,05,28,10,20,16.60
2015,05,28,10,21,16.70
2015,05,28,10,22,16.80
2015,05,28,10,23,16.90
2015,05,28,10,24,17.00
2015,05,28,10,25,17.20
2015,05,28,10,26,17.30
2015,05,28,10,27,17.30
2015,05,28,10,28,17.30
2015,05,28,10,29,17.20
2015,05,28,10,30,17.10
2015,05,28,10,31,17.00
2015,05,28,10,32,17.10
2015,05,28,10,33,17.10
2015,05,28,10,34,17.20
2015,05,28,10,35,17.30
2015,05,28,10,36,17.50
2015,05,28,10,37,17.60
2015,05,28,10,38,17.60
2015,05,28,10,39,17.50
2015,05,28,10,40,17.40
2015,05,28,10,41,17.40
2015,05,28,10,42,17.50
2015,05,28,10,43,17.50
2015,05,28,10,44,17.50
2015,05,28,10,45,17.60
2015,05,28,10,46,17.50
2015,05,28,10,47,17.50
2015,05,28,10,48,17.60
2015,05,28,10,49,17.50
2015,05,28,10,50,17.30
2015,05,28,10,51,17.10
2015,05,28,10,52,17.10
2015,05,28,10,53,17.20
2015,05,28,10,54,17.20
2015,05,28,10,55,17.20
2015,05,28,10,56,17.30
2015,05,28,10,57,17.40
2015,05,28,10,58,17.50
2015,05,28,10,59,17.60
2015,05,28,11,00,17.80
2015,05,28,11,01,17.90
2015,05,28,11,02,18.10
2015,05,28,11,03,18.20
2015,05,28,11,04,18.30
2015,05,28,11,05,18.10
2015,05,28,11,06,18.00
2015,05,28,11,07,18.10
2015,05,28,11,08,18.10
2015,05,28,11,09,18.20
2015,05,28,11,10,18.30
2015,05,28,11,11,18.40
2015,05,28,11,12,18.30
2015,05,28,11,13,18.20
2015,05,28,11,14,18.30
2015,05,28,11,15,18.30
2015,05,28,11,16,18.30
2015,05,28,11,17,18.40
2015,05,28,11,18,18.50
2015,05,28,11,19,18.60
2015,05,28,11,20,18.60
2015,05,28,11,21,18.60
2015,05,28,11,22,18.60
2015,05,28,11,23,18.70
2015,05,28,11,24,18.80
2015,05,28,11,25,18.90
2015,05,28,11,26,19.00
2015,05,28,11,27,19.00
2015,05,28,11,28,19.10
2015,05,28,11,29,19.00
2015,05,28,11,30,18.90
2015,05,28,11,31,18.90
2015,05,28,11,32,18.80
2015,05,28,11,33,18.70
2015,05,28,11,34,18.70
2015,05,28,11,35,18.70
2015,05,28,11,36,18.80
2015,05,28,11,37,18.80
2015,05,28,11,38,18.90
2015,05,28,11,39,18.90
2015,05,28,11,40,19.00
2015,05,28,11,41,19.00
2015,05,28,11,42,18.90
2015,05,28,11,43,18.90
2015,05,28,11,44,18.70
2015,05,28,11,45,18.60
2015,05,28,11,46,18.60
2015,05,28,11,47,18.60
2015,05,28,11,48,18.60
2015,05,28,11,49,18.70
2015,05,28,11,50,18.70
2015,05,28,11,51,18.70
2015,05,28,11,52,18.60
2015,05,28,11,53,18.50
2015,05,28,11,54,18.30
2015,05,28,11,55,18.10
2015,05,28,11,56,18.10
2015,05,28,11,57,18.20
2015,05,28,11,58,18.10
2015,05,28,11,59,17.90
2015,05,28,12,00,17.80
2015,05,28,12,01,17.80
2015,05,28,12,02,17.90
2015,05,28,12,03,18.00
2015,05,28,12,04,18.10
2015,05,28,12,05,18.10
2015,05,28,12,06,18.10
2015,05,28,12,07,18.10
2015,05,28,12,08,18.10
2015,05,28,12,09,18.30
2015,05,28,12,10,18.30
2015,05,28,12,11,18.40
2015,05,28,12,12,18.50
2015,05,28,12,13,18.60
2015,05,28,12,14,18.70
2015,05,28,12,15,18.80
2015,05,28,12,16,18.90
2015,05,28,12,17,19.00
2015,05,28,12,18,19.10
2015,05,28,12,19,19.20
2015,05,28,12,20,19.30
2015,05,28,12,21,19.40
2015,05,28,12,22,19.50
2015,05,28,12,23,19.60
2015,05,28,12,24,19.50
2015,05,28,12,25,19.50
2015,05,28,12,26,19.40
2015,05,28,12,27,19.50
2015,05,28,12,28,19.60
2015,05,28,12,29,19.70
2015,05,28,12,30,19.70
2015,05,28,12,31,19.80
2015,05,28,12,32,19.80
2015,05,28,12,33,19.80
2015,05,28,12,34,19.60
2015,05,28,12,35,19.30
2015,05,28,12,36,19.30
2015,05,28,12,37,19.30
2015,05,28,12,38,19.40
2015,05,28,12,39,19.50
2015,05,28,12,40,19.60
2015,05,28,12,41,19.60
2015,05,28,12,42,19.40
2015,05,28,12,43,19.30
2015,05,28,12,44,19.40
2015,05,28,12,45,19.40
2015,05,28,12,46,19.50
2015,05,28,12,47,19.60
2015,05,28,12,48,19.80
2015,05,28,12,49,19.80
2015,05,28,12,50,19.90
2015,05,28,12,51,19.80
2015,05,28,12,52,19.80
2015,05,28,12,53,19.90
2015,05,28,12,54,19.90
2015,05,28,12,55,19.90
2015,05,28,12,56,19.90
2015,05,28,12,57,19.80
2015,05,28,12,58,19.90
2015,05,28,12,59,20.00
2015,05,28,13,00,20.00
2015,05,28,13,01,20.00
2015,05,28,13,02,19.90
2015,05,28,13,03,19.80
2015,05,28,13,04,19.80
2015,05,28,13,05,19.90
2015,05,28,13,06,19.80
2015,05,28,13,07,19.80
2015,05,28,13,08,19.70
2015,05,28,13,09,19.80
2015,05,28,13,10,20.00
2015,05,28,13,11,20.00
2015,05,28,13,12,20.10
2015,05,28,13,13,20.20
2015,05,28,13,14,20.30
2015,05,28,13,15,20.30
2015,05,28,13,16,20.10
2015,05,28,13,17,19.90
2015,05,28,13,18,19.90
2015,05,28,13,19,19.90
2015,05,28,13,20,20.00
2015,05,28,13,21,20.00
2015,05,28,13,22,20.00
2015,05,28,13,23,20.00
2015,05,28,13,24,20.00
2015,05,28,13,25,20.10
2015,05,28,13,26,20.10
2015,05,28,13,27,20.20
2015,05,28,13,28,20.30
2015,05,28,13,29,20.30
2015,05,28,13,30,20.40
2015,05,28,13,31,20.40
2015,05,28,13,32,20.30
2015,05,28,13,33,20.20
2015,05,28,13,34,20.20
2015,05,28,13,35,20.20
2015,05,28,13,36,20.30
2015,05,28,13,37,20.30
2015,05,28,13,38,20.30
2015,05,28,13,39,20.40
2015,05,28,13,40,20.60
2015,05,28,13,41,20.60
2015,05,28,13,42,20.40
2015,05,28,13,43,20.30
2015,05,28,13,44,20.40
2015,05,28,13,45,20.50
2015,05,28,13,46,20.60
2015,05,28,13,47,20.50
2015,05,28,13,48,20.40
2015,05,28,13,49,20.40
2015,05,28,13,50,20.30
2015,05,28,13,51,20.20
2015,05,28,13,52,20.10
2015,05,28,13,53,20.10
2015,05,28,13,54,20.20
2015,05,28,13,55,20.30
2015,05,28,13,56,20.40
2015,05,28,13,57,20.50
2015,05,28,13,58,20.50
2015,05,28,13,59,20.60
2015,05,28,14,00,20.60
2015,05,28,14,01,20.70
2015,05,28,14,02,20.70
2015,05,28,14,03,20.70
2015,05,28,14,04,20.70
2015,05,28,14,05,20.70
2015,05,28,14,06,20.70
2015,05,28,14,07,20.70
2015,05,28,14,08,20.70
2015,05,28,14,09,20.70
2015,05,28,14,10,20.70
2015,05,28,14,11,20.80
2015,05,28,14,12,20.80
2015,05,28,14,13,20.90
2015,05,28,14,14,20.90
2015,05,28,14,15,20.90
2015,05,28,14,16,20.90
2015,05,28,14,17,20.90
2015,05,28,14,18,20.90
2015,05,28,14,19,20.80
2015,05,28,14,20,20.80
2015,05,28,14,21,20.90
2015,05,28,14,22,21.00
2015,05,28,14,23,21.10
2015,05,28,14,24,21.20
2015,05,28,14,25,21.10
2015,05,28,14,26,21.00
2015,05,28,14,27,20.90
2015,05,28,14,28,20.90
2015,05,28,14,29,20.90
2015,05,28,14,30,20.90
2015,05,28,14,31,21.00
2015,05,28,14,32,21.10
2015,05,28,14,33,21.10
2015,05,28,14,34,20.90
2015,05,28,14,35,20.90
2015,05,28,14,36,20.80
2015,05,28,14,37,20.80
2015,05,28,14,38,20.70
2015,05,28,14,39,20.70
2015,05,28,14,40,20.70
2015,05,28,14,41,20.60
2015,05,28,14,42,20.50
2015,05,28,14,43,20.40
2015,05,28,14,44,20.40
2015,05,28,14,45,20.30
2015,05,28,14,46,20.40
2015,05,28,14,47,20.60
2015,05,28,14,48,20.70
2015,05,28,14,49,20.80
2015,05,28,14,50,20.80
2015,05,28,14,51,20.70
2015,05,28,14,52,20.60
2015,05,28,14,53,20.50
2015,05,28,14,54,20.40
2015,05,28,14,55,20.40
2015,05,28,14,56,20.50
2015,05,28,14,57,20.70
2015,05,28,14,58,20.90
2015,05,28,14,59,21.00
2015,05,28,15,00,21.20
2015,05,28,15,01,21.30
2015,05,28,15,02,21.30
2015,05,28,15,03,21.40
2015,05,28,15,04,21.40
2015,05,28,15,05,21.50
2015,05,28,15,06,21.60
2015,05,28,15,07,21.70
2015,05,28,15,08,21.70
2015,05,28,15,09,21.80
2015,05,28,15,10,21.90
2015,05,28,15,11,21.90
2015,05,28,15,12,21.60
2015,05,28,15,13,21.20
2015,05,28,15,14,21.10
2015,05,28,15,15,21.10
2015,05,28,15,16,21.20
2015,05,28,15,17,21.20
2015,05,28,15,18,21.30
2015,05,28,15,19,21.30
2015,05,28,15,20,21.10
2015,05,28,15,21,20.80
2015,05,28,15,22,20.50
2015,05,28,15,23,20.40
2015,05,28,15,24,20.40
2015,05,28,15,25,20.30
2015,05,28,15,26,20.20
2015,05,28,15,27,20.10
2015,05,28,15,28,20.10
2015,05,28,15,29,20.20
2015,05,28,15,30,20.30
2015,05,28,15,31,20.30
2015,05,28,15,32,20.30
2015,05,28,15,33,20.20
2015,05,28,15,34,20.20
2015,05,28,15,35,20.20
2015,05,28,15,36,20.30
2015,05,28,15,37,20.50
2015,05,28,15,38,20.60
2015,05,28,15,39,20.60
2015,05,28,15,40,20.50
2015,05,28,15,41,20.50
2015,05,28,15,42,20.60
2015,05,28,15,43,20.70
2015,05,28,15,44,20.80
2015,05,28,15,45,21.00
2015,05,28,15,46,21.10
2015,05,28,15,47,21.20
2015,05,28,15,48,21.20
2015,05,28,15,49,21.10
2015,05,28,15,50,21.10
2015,05,28,15,51,21.00
2015,05,28,15,52,21.00
2015,05,28,15,53,20.90
2015,05,28,15,54,20.90
2015,05,28,15,55,20.90
2015,05,28,15,56,20.80
2015,05,28,15,57,20.80
2015,05,28,15,58,20.90
2015,05,28,15,59,20.90
2015,05,28,16,00,21.00
2015,05,28,16,01,21.20
2015,05,28,16,02,21.40
2015,05,28,16,03,21.50
2015,05,28,16,04,21.60
2015,05,28,16,05,21.80
2015,05,28,16,06,21.90
2015,05,28,16,07,22.10
2015,05,28,16,08,22.10
2015,05,28,16,09,22.20
2015,05,28,16,10,22.30
2015,05,28,16,11,22.30
2015,05,28,16,12,22.40
2015,05,28,16,13,22.30
2015,05,28,16,14,22.30
2015,05,28,16,15,22.30
2015,05,28,16,16,22.40
2015,05,28,16,17,22.50
2015,05,28,16,18,22.60
2015,05,28,16,19,22.70
2015,05,28,16,20,22.60
2015,05,28,16,21,22.70
2015,05,28,16,22,22.60
2015,05,28,16,23,22.60
2015,05,28,16,24,22.50
2015,05,28,16,25,22.50
2015,05,28,16,26,22.50
2015,05,28,16,27,22.50
2015,05,28,16,28,22.60
2015,05,28,16,29,22.70
2015,05,28,16,30,22.70
2015,05,28,16,31,22.80
2015,05,28,16,32,22.80
2015,05,28,16,33,22.80
2015,05,28,16,34,22.80
2015,05,28,16,35,22.80
2015,05,28,16,36,22.70
2015,05,28,16,37,22.70
2015,05,28,16,38,22.70
2015,05,28,16,39,22.70
2015,05,28,16,40,22.70
2015,05,28,16,41,22.80
2015,05,28,16,42,22.90
2015,05,28,16,43,23.00
2015,05,28,16,44,23.10
2015,05,28,16,45,23.20
2015,05,28,16,46,23.40
2015,05,28,16,47,23.40
2015,05,28,16,48,23.40
2015,05,28,16,49,23.40
2015,05,28,16,50,23.50
2015,05,28,16,51,23.60
2015,05,28,16,52,23.60
2015,05,28,16,53,23.70
2015,05,28,16,54,23.80
2015,05,28,16,55,24.00
2015,05,28,16,56,24.10
2015,05,28,16,57,24.10
2015,05,28,16,58,24.20
2015,05,28,16,59,24.10
2015,05,28,17,00,24.20
2015,05,28,17,01,24.20
2015,05,28,17,02,24.20
2015,05,28,17,03,24.00
2015,05,28,17,04,24.00
2015,05,28,17,05,23.90
2015,05,28,17,06,24.00
2015,05,28,17,07,24.00
2015,05,28,17,08,24.00
2015,05,28,17,09,24.10
2015,05,28,17,10,24.20
2015,05,28,17,11,24.20
2015,05,28,17,12,24.30
2015,05,28,17,13,24.30
2015,05,28,17,14,24.30
2015,05,28,17,15,24.20
2015,05,28,17,16,24.00
2015,05,28,17,17,23.90
2015,05,28,17,18,23.80
2015,05,28,17,19,23.70
2015,05,28,17,20,23.50
2015,05,28,17,21,23.30
2015,05,28,17,22,23.10
2015,05,28,17,23,23.00
2015,05,28,17,24,23.00
2015,05,28,17,25,22.90
2015,05,28,17,26,22.80
2015,05,28,17,27,22.80
2015,05,28,17,28,22.80
2015,05,28,17,29,22.80
2015,05,28,17,30,22.80
2015,05,28,17,31,22.80
2015,05,28,17,32,22.80
2015,05,28,17,33,22.80
2015,05,28,17,34,22.70
2015,05,28,17,35,22.70
2015,05,28,17,36,22.70
2015,05,28,17,37,22.70
2015,05,28,17,38,22.60
2015,05,28,17,39,22.60
2015,05,28,17,40,22.70
2015,05,28,17,41,22.80
2015,05,28,17,42,22.80
2015,05,28,17,43,22.90
2015,05,28,17,44,23.00
2015,05,28,17,45,23.00
2015,05,28,17,46,23.10
2015,05,28,17,47,23.10
2015,05,28,17,48,23.10
2015,05,28,17,49,23.20
2015,05,28,17,50,23.20
2015,05,28,17,51,23.20
2015,05,28,17,52,23.20
2015,05,28,17,53,23.20
2015,05,28,17,54,23.20
2015,05,28,17,55,23.20
2015,05,28,17,56,23.30
2015,05,28,17,57,23.30
2015,05,28,17,58,23.30
2015,05,28,17,59,23.20
2015,05,28,18,00,23.20
2015,05,28,18,01,23.20
2015,05,28,18,02,23.20
2015,05,28,18,03,23.20
2015,05,28,18,04,23.20
2015,05,28,18,05,23.10
2015,05,28,18,06,23.10
2015,05,28,18,07,23.10
2015,05,28,18,08,23.10
2015,05,28,18,09,23.10
2015,05,28,18,10,23.10
2015,05,28,18,11,23.10
2015,05,28,18,12,23.20
2015,05,28,18,13,23.20
2015,05,28,18,14,23.20
2015,05,28,18,15,23.10
2015,05,28,18,16,23.00
2015,05,28,18,17,22.90
2015,05,28,18,18,22.90
2015,05,28,18,19,22.80
2015,05,28,18,20,22.80
2015,05,28,18,21,22.80
2015,05,28,18,22,22.80
2015,05,28,18,23,22.80
2015,05,28,18,24,22.80
2015,05,28,18,25,22.80
2015,05,28,18,26,22.80
2015,05,28,18,27,22.90
2015,05,28,18,28,22.90
2015,05,28,18,29,23.00
2015,05,28,18,30,23.00
2015,05,28,18,31,23.00
2015,05,28,18,32,22.90
2015,05,28,18,33,22.90
2015,05,28,18,34,22.90
2015,05,28,18,35,22.90
2015,05,28,18,36,22.90
2015,05,28,18,37,22.90
2015,05,28,18,38,22.90
2015,05,28,18,39,22.90
2015,05,28,18,40,22.90
2015,05,28,18,41,22.90
2015,05,28,18,42,23.00
2015,05,28,18,43,23.00
2015,05,28,18,44,23.10
2015,05,28,18,45,23.10
2015,05,28,18,46,23.20
2015,05,28,18,47,23.20
2015,05,28,18,48,23.20
2015,05,28,18,49,23.20
2015,05,28,18,50,23.20
2015,05,28,18,51,23.20
2015,05,28,18,52,23.20
2015,05,28,18,53,23.20
2015,05,28,18,54,23.20
2015,05,28,18,55,23.20
2015,05,28,18,56,23.20
2015,05,28,18,57,23.20
2015,05,28,18,58,23.20
2015,05,28,18,59,23.20
2015,05,28,19,00,23.20
2015,05,28,19,01,23.20
2015,05,28,19,02,23.20
2015,05,28,19,03,23.20
2015,05,28,19,04,23.20
2015,05,28,19,05,23.20
2015,05,28,19,06,23.20
2015,05,28,19,07,23.20
2015,05,28,19,08,23.20
2015,05,28,19,09,23.20
2015,05,28,19,10,23.10
2015,05,28,19,11,23.10
2015,05,28,19,12,23.10
2015,05,28,19,13,23.00
2015,05,28,19,14,23.10
2015,05,28,19,15,23.10
2015,05,28,19,16,23.00
2015,05,28,19,17,23.00
2015,05,28,19,18,23.00
2015,05,28,19,19,23.00
2015,05,28,19,20,22.90
2015,05,28,19,21,23.00
2015,05,28,19,22,23.00
2015,05,28,19,23,23.00
2015,05,28,19,24,23.10
2015,05,28,19,25,23.10
2015,05,28,19,26,23.10
2015,05,28,19,27,23.10
2015,05,28,19,28,23.10
2015,05,28,19,29,23.10
2015,05,28,19,30,23.10
2015,05,28,19,31,23.10
2015,05,28,19,32,23.10
2015,05,28,19,33,23.10
2015,05,28,19,34,23.10
2015,05,28,19,35,23.10
2015,05,28,19,36,23.10
2015,05,28,19,37,23.10
2015,05,28,19,38,23.10
2015,05,28,19,39,23.10
2015,05,28,19,40,23.10
2015,05,28,19,41,23.10
2015,05,28,19,42,23.10
2015,05,28,19,43,23.10
2015,05,28,19,44,23.10
2015,05,28,19,45,23.10
2015,05,28,19,46,23.10
2015,05,28,19,47,23.10
2015,05,28,19,48,23.10
2015,05,28,19,49,23.10
2015,05,28,19,50,23.10
2015,05,28,19,51,23.10
2015,05,28,19,52,23.10
2015,05,28,19,53,23.10
2015,05,28,19,54,23.10
2015,05,28,19,55,23.10
2015,05,28,19,56,23.10
2015,05,28,19,57,23.10
